Regional Weather Roundup
Issued by NWS Cleveland, OH

Home | Current Version | Previous Version | Graphics & Text | Print | Product List | Glossary On
Versions: 1 2 3 4 5 6 7 8 9 10 11 12 13 14 15 16 17 18 19 20 21 22 23 24 25 26 27 28 29 30 31 32 33 34 35 36 37 38 39 40 41 42 43 44 45 46 47 48 49 50
399
ASUS41 KCLE 262112
RWRCLE
OHIO REGIONAL WEATHER ROUNDUP
NATIONAL WEATHER SERVICE WILMINGTON, OH
500 PM EDT SUN MAR 26 2017

NOTE: "FAIR" INDICATES FEW OR NO CLOUDS BELOW 12,000 FEET WITH NO
SIGNIFICANT WEATHER AND/OR OBSTRUCTIONS TO VISIBILITY.

OHZ001>008-015>018-024>027-034-035-043-044-262200-
   NORTHWEST OHIO

CITY           SKY/WX    TMP DP  RH WIND       PRES   REMARKS
DEFIANCE       FAIR      61  55  81 SW8       29.86S
FINDLAY        FAIR      65  52  62 S15       29.87F
TOLEDO EXPRESS PTSUNNY   57  54  89 NE6       29.87S
TOLEDO EXEC    PTSUNNY   53  51  93 NE6       29.89S
LIMA           CLOUDY    62  53  72 S13       29.88S
$$

OHZ009>014-019>023-028>033-038-089-262200-
   NORTHEAST OHIO

CITY           SKY/WX    TMP DP  RH WIND       PRES   REMARKS
CLE-HOPKINS    CLOUDY    66  50  56 S14       29.93F
CLE-LAKEFRONT  CLOUDY    47  43  86 NE6       29.91F
CUY CO. ARPT   CLOUDY    66  54  63 S14       29.93F
LORAIN-ELYRIA  LGT RAIN  61  52  72 SW18G25   29.92F
ASHTABULA      CLOUDY    62  56  80 S9        29.96F
AKRON-CANTON   LGT RAIN  63  51  65 S21       29.94F
WOOSTER        RAIN      58  54  86 W17       29.95R FOG
MANSFIELD      LGT RAIN  56  53  90 SE8       29.92F
YOUNGSTOWN     PTSUNNY   61  55  81 SE10      29.96F
$$

OHZ042-051>053-060>062-070>072-077>081-262200-
  SOUTHWEST OHIO

CITY           SKY/WX    TMP DP  RH WIND       PRES   REMARKS
CINC-COVINGTON PTSUNNY   67  53  61 S13G20    29.88F
CINC-LUNKEN    PTSUNNY   67  54  63 S13       29.89F
HAMILTON       LGT RAIN  67  55  65 S6        29.89F
DAYTON         PTSUNNY   64  53  67 S10       29.89F
WRIGHT-PAT AFB PTSUNNY   65  57  74 S12       29.89F
DAYTON GENERAL PTSUNNY   65  55  70 S8        29.88F
WILMINGTON     FAIR      64  55  72 S12G21    29.90S
$$

OHZ036-037-039>041-045>050-054>059-063>069-073>076-082>088-262200-
  CENTRAL AND SOUTHEAST OHIO

CITY           SKY/WX    TMP DP  RH WIND       PRES   REMARKS
COLUMBUS       FAIR      60  56  86 S7        29.92F
OSU AIRPORT    FAIR      62  57  83 S10       29.91F
BOLTON FIELD   MOSUNNY   63  57  82 S14       29.92F
RICKENBACK AFB FAIR      61  58  88 S12       29.93F
NEWARK         FAIR      59  54  83 SW5       29.94S
MARION         FAIR      61  55  81 S12       29.92S
LANCASTER      FAIR      63  55  75 S8        29.94F
ZANESVILLE     PTSUNNY   60  55  83 S13       29.97R
NEW PHILLY     LGT RAIN  61  56  83 VRB6      29.96S
$$




USA.gov is the U.S. government's official web portal to all federal, state and local government web resources and services.